Time,TemperatureF,DewpointF,PressureIn,WindDirection,WindDirectionDegrees,WindSpeedMPH,WindSpeedGustMPH,Humidity,HourlyPrecipIn,Conditions,Clouds,dailyrainin,SoftwareType,DateUTC
2013-05-29 00:01:00,71.6,62.5,30.20,South,175,5.0,7.0,73,0.00,,,0.00,Wunderground v.1.15,2013-05-29 04:01:00,
2013-05-29 00:02:00,71.5,62.8,30.20,SSE,158,2.0,7.0,74,0.00,,,0.00,Wunderground v.1.15,2013-05-29 04:02:00,
2013-05-29 00:04:00,71.5,62.8,30.20,SSE,165,7.0,7.0,74,0.00,,,0.00,Wunderground v.1.15,2013-05-29 04:04:00,
2013-05-29 00:05:00,71.4,62.7,30.20,South,188,8.0,8.0,74,0.00,,,0.00,Wunderground v.1.15,2013-05-29 04:05:00,
2013-05-29 00:06:00,71.3,62.6,30.20,SW,214,5.0,8.0,74,0.00,,,0.00,Wunderground v.1.15,2013-05-29 04:06:00,
2013-05-29 00:11:00,71.2,62.5,30.21,SSE,151,3.0,6.0,74,0.00,,,0.00,Wunderground v.1.15,2013-05-29 04:11:00,
2013-05-29 00:17:00,71.0,62.7,30.21,SSE,165,3.0,6.0,75,0.00,,,0.00,Wunderground v.1.15,2013-05-29 04:17:00,
2013-05-29 00:22:00,70.9,63.0,30.21,SSW,202,5.0,6.0,76,0.00,,,0.00,Wunderground v.1.15,2013-05-29 04:22:00,
2013-05-29 00:27:00,70.7,62.8,30.21,SSW,196,3.0,6.0,76,0.00,,,0.00,Wunderground v.1.15,2013-05-29 04:27:00,
2013-05-29 00:32:00,70.6,62.7,30.20,SSW,202,3.0,7.0,76,0.00,,,0.00,Wunderground v.1.15,2013-05-29 04:32:00,
2013-05-29 00:38:00,70.4,62.8,30.20,SSW,210,5.0,7.0,77,0.00,,,0.00,Wunderground v.1.15,2013-05-29 04:38:00,
2013-05-29 00:44:00,70.2,63.0,30.20,SSE,147,7.0,7.0,78,0.00,,,0.00,Wunderground v.1.15,2013-05-29 04:44:00,
2013-05-29 00:49:00,70.1,62.9,30.20,South,182,6.0,8.0,78,0.00,,,0.00,Wunderground v.1.15,2013-05-29 04:49:00,
2013-05-29 00:54:00,70.1,63.3,30.20,SSE,154,2.0,7.0,79,0.00,,,0.00,Wunderground v.1.15,2013-05-29 04:54:00,
2013-05-29 01:00:00,70.0,63.2,30.20,SSE,156,7.0,7.0,79,0.00,,,0.00,Wunderground v.1.15,2013-05-29 05:00:00,
2013-05-29 01:05:00,69.9,63.1,30.20,SSE,151,6.0,7.0,79,0.00,,,0.00,Wunderground v.1.15,2013-05-29 05:05:00,
2013-05-29 01:10:00,69.9,63.4,30.20,SSW,206,7.0,7.0,80,0.00,,,0.00,Wunderground v.1.15,2013-05-29 05:10:00,
2013-05-29 01:15:00,69.8,63.3,30.20,SSE,159,3.0,7.0,80,0.00,,,0.00,Wunderground v.1.15,2013-05-29 05:15:00,
2013-05-29 01:21:00,69.7,63.3,30.20,SSE,156,7.0,7.0,80,0.00,,,0.00,Wunderground v.1.15,2013-05-29 05:21:00,
2013-05-29 01:27:00,69.5,63.4,30.20,South,185,6.0,7.0,81,0.00,,,0.00,Wunderground v.1.15,2013-05-29 05:27:00,
2013-05-29 01:33:00,69.4,63.3,30.20,SSE,154,3.0,5.0,81,0.00,,,0.00,Wunderground v.1.15,2013-05-29 05:33:00,
2013-05-29 01:38:00,69.3,63.2,30.21,SSE,157,3.0,5.0,81,0.00,,,0.00,Wunderground v.1.15,2013-05-29 05:38:00,
2013-05-29 01:43:00,69.2,63.5,30.20,SW,223,6.0,6.0,82,0.00,,,0.00,Wunderground v.1.15,2013-05-29 05:43:00,
2013-05-29 01:48:00,69.0,63.3,30.21,South,183,3.0,6.0,82,0.00,,,0.00,Wunderground v.1.15,2013-05-29 05:48:00,
2013-05-29 01:53:00,68.9,63.5,30.20,SSW,196,4.0,5.0,83,0.00,,,0.00,Wunderground v.1.15,2013-05-29 05:53:00,
2013-05-29 01:59:00,68.8,63.4,30.20,SSE,166,2.0,5.0,83,0.00,,,0.00,Wunderground v.1.15,2013-05-29 05:59:00,
2013-05-29 02:04:00,68.7,63.3,30.20,SSE,162,4.0,5.0,83,0.00,,,0.00,Wunderground v.1.15,2013-05-29 06:04:00,
2013-05-29 02:09:00,68.6,63.6,30.20,SE,146,4.0,6.0,84,0.00,,,0.00,Wunderground v.1.15,2013-05-29 06:09:00,
2013-05-29 02:14:00,68.4,63.4,30.20,South,179,4.0,6.0,84,0.00,,,0.00,Wunderground v.1.15,2013-05-29 06:14:00,
2013-05-29 02:19:00,68.3,63.6,30.20,South,170,3.0,7.0,85,0.00,,,0.00,Wunderground v.1.15,2013-05-29 06:19:00,
2013-05-29 02:24:00,68.2,63.5,30.20,South,182,1.0,7.0,85,0.00,,,0.00,Wunderground v.1.15,2013-05-29 06:24:00,
2013-05-29 02:29:00,68.1,63.4,30.20,South,176,2.0,7.0,85,0.00,,,0.00,Wunderground v.1.15,2013-05-29 06:29:00,
2013-05-29 02:34:00,68.0,63.7,30.20,SSW,202,3.0,5.0,86,0.00,,,0.00,Wunderground v.1.15,2013-05-29 06:34:00,
2013-05-29 02:39:00,67.9,63.6,30.20,South,189,3.0,7.0,86,0.00,,,0.00,Wunderground v.1.15,2013-05-29 06:39:00,
2013-05-29 02:44:00,67.7,63.4,30.20,SSE,151,2.0,6.0,86,0.00,,,0.00,Wunderground v.1.15,2013-05-29 06:44:00,
2013-05-29 02:49:00,67.6,63.6,30.19,SSW,200,1.0,6.0,87,0.00,,,0.00,Wunderground v.1.15,2013-05-29 06:49:00,
2013-05-29 02:54:00,67.4,63.4,30.19,SSW,192,5.0,5.0,87,0.00,,,0.00,Wunderground v.1.15,2013-05-29 06:54:00,
2013-05-29 02:59:00,67.4,63.4,30.19,SSE,153,3.0,5.0,87,0.00,,,0.00,Wunderground v.1.15,2013-05-29 06:59:00,
2013-05-29 03:04:00,67.3,63.6,30.19,SSW,210,4.0,6.0,88,0.00,,,0.00,Wunderground v.1.15,2013-05-29 07:04:00,
2013-05-29 03:09:00,67.3,63.6,30.20,SSW,195,2.0,6.0,88,0.00,,,0.00,Wunderground v.1.15,2013-05-29 07:09:00,
2013-05-29 03:14:00,67.2,63.5,30.19,South,182,0.0,4.0,88,0.00,,,0.00,Wunderground v.1.15,2013-05-29 07:14:00,
2013-05-29 03:19:00,67.1,63.4,30.20,South,170,0.0,4.0,88,0.00,,,0.00,Wunderground v.1.15,2013-05-29 07:19:00,
2013-05-29 03:24:00,67.0,63.0,30.19,SSW,204,2.0,2.0,87,0.00,,,0.00,Wunderground v.1.15,2013-05-29 07:24:00,
2013-05-29 03:29:00,66.8,63.5,30.19,SSW,199,2.0,3.0,89,0.00,,,0.00,Wunderground v.1.15,2013-05-29 07:29:00,
2013-05-29 03:34:00,66.6,63.3,30.19,South,178,1.0,3.0,89,0.00,,,0.00,Wunderground v.1.15,2013-05-29 07:34:00,
2013-05-29 03:39:00,66.5,63.2,30.19,South,183,2.0,4.0,89,0.00,,,0.00,Wunderground v.1.15,2013-05-29 07:39:00,
2013-05-29 03:44:00,66.3,63.0,30.20,SSW,196,3.0,3.0,89,0.00,,,0.00,Wunderground v.1.15,2013-05-29 07:44:00,
2013-05-29 03:50:00,66.3,63.0,30.20,South,173,1.0,3.0,89,0.00,,,0.00,Wunderground v.1.15,2013-05-29 07:50:00,
2013-05-29 03:55:00,66.1,63.1,30.20,SSE,154,3.0,3.0,90,0.00,,,0.00,Wunderground v.1.15,2013-05-29 07:55:00,
2013-05-29 04:00:00,65.9,62.9,30.20,SSE,156,1.0,4.0,90,0.00,,,0.00,Wunderground v.1.15,2013-05-29 08:00:00,
2013-05-29 04:05:00,65.8,62.5,30.20,SSE,156,0.0,2.0,89,0.00,,,0.00,Wunderground v.1.15,2013-05-29 08:05:00,
2013-05-29 04:10:00,65.7,62.4,30.20,SSE,157,2.0,2.0,89,0.00,,,0.00,Wunderground v.1.15,2013-05-29 08:10:00,
2013-05-29 04:15:00,65.5,62.2,30.21,SSE,161,0.0,2.0,89,0.00,,,0.00,Wunderground v.1.15,2013-05-29 08:15:00,
2013-05-29 04:20:00,65.4,62.4,30.21,SSE,161,0.0,0.0,90,0.00,,,0.00,Wunderground v.1.15,2013-05-29 08:20:00,
2013-05-29 04:25:00,65.2,62.2,30.21,SSE,161,0.0,0.0,90,0.00,,,0.00,Wunderground v.1.15,2013-05-29 08:25:00,
2013-05-29 04:30:00,65.0,62.0,30.21,SSE,161,0.0,0.0,90,0.00,,,0.00,Wunderground v.1.15,2013-05-29 08:30:00,
2013-05-29 04:35:00,64.8,61.8,30.21,SSE,161,0.0,1.0,90,0.00,,,0.00,Wunderground v.1.15,2013-05-29 08:35:00,
2013-05-29 04:40:00,64.5,61.8,30.21,SSE,161,0.0,0.0,91,0.00,,,0.00,Wunderground v.1.15,2013-05-29 08:40:00,
2013-05-29 04:45:00,64.3,61.6,30.22,SSE,161,0.0,0.0,91,0.00,,,0.00,Wunderground v.1.15,2013-05-29 08:45:00,
2013-05-29 04:50:00,64.0,61.3,30.22,SSE,161,0.0,0.0,91,0.00,,,0.00,Wunderground v.1.15,2013-05-29 08:50:00,
2013-05-29 04:55:00,63.8,61.1,30.22,SSE,161,0.0,0.0,91,0.00,,,0.00,Wunderground v.1.15,2013-05-29 08:55:00,
2013-05-29 05:00:00,63.6,60.9,30.22,SSE,161,0.0,1.0,91,0.00,,,0.00,Wunderground v.1.15,2013-05-29 09:00:00,
2013-05-29 05:05:00,62.9,60.8,30.22,SSE,154,1.0,1.0,93,0.00,,,0.00,Wunderground v.1.15,2013-05-29 09:05:00,
2013-05-29 05:11:00,62.3,60.6,30.22,SSE,156,0.0,1.0,94,0.00,,,0.00,Wunderground v.1.15,2013-05-29 09:11:00,
2013-05-29 05:16:00,62.1,60.9,30.22,SSE,156,0.0,1.0,96,0.00,,,0.00,Wunderground v.1.15,2013-05-29 09:16:00,
2013-05-29 05:21:00,62.0,60.8,30.22,SSE,156,0.0,0.0,96,0.00,,,0.00,Wunderground v.1.15,2013-05-29 09:21:00,
2013-05-29 05:26:00,61.8,60.6,30.22,SSE,156,0.0,0.0,96,0.00,,,0.00,Wunderground v.1.15,2013-05-29 09:26:00,
2013-05-29 05:31:00,61.7,60.5,30.22,SSE,156,0.0,0.0,96,0.00,,,0.00,Wunderground v.1.15,2013-05-29 09:31:00,
2013-05-29 05:36:00,61.5,60.6,30.23,SSE,156,0.0,0.0,97,0.00,,,0.00,Wunderground v.1.15,2013-05-29 09:36:00,
2013-05-29 05:41:00,61.3,60.4,30.22,SSE,156,0.0,0.0,97,0.00,,,0.00,Wunderground v.1.15,2013-05-29 09:41:00,
2013-05-29 05:46:00,61.1,60.2,30.22,SSE,156,0.0,0.0,97,0.00,,,0.00,Wunderground v.1.15,2013-05-29 09:46:00,
2013-05-29 05:51:00,60.9,60.0,30.22,SSE,156,0.0,0.0,97,0.00,,,0.00,Wunderground v.1.15,2013-05-29 09:51:00,
2013-05-29 05:56:00,60.7,59.8,30.23,SSE,156,0.0,0.0,97,0.00,,,0.00,Wunderground v.1.15,2013-05-29 09:56:00,
2013-05-29 06:01:00,60.5,59.6,30.23,SSE,156,0.0,1.0,97,0.00,,,0.00,Wunderground v.1.15,2013-05-29 10:01:00,
2013-05-29 06:06:00,60.3,59.4,30.23,SSE,157,0.0,1.0,97,0.00,,,0.00,Wunderground v.1.15,2013-05-29 10:06:00,
2013-05-29 06:11:00,60.2,59.3,30.23,SSE,157,0.0,0.0,97,0.00,,,0.00,Wunderground v.1.15,2013-05-29 10:11:00,
2013-05-29 06:16:00,60.2,59.6,30.23,SSE,157,0.0,0.0,98,0.00,,,0.00,Wunderground v.1.15,2013-05-29 10:16:00,
2013-05-29 06:21:00,60.2,59.6,30.23,SSE,157,0.0,0.0,98,0.00,,,0.00,Wunderground v.1.15,2013-05-29 10:21:00,
2013-05-29 06:26:00,60.1,59.5,30.23,SSE,157,0.0,0.0,98,0.00,,,0.00,Wunderground v.1.15,2013-05-29 10:26:00,
2013-05-29 06:31:00,60.1,59.5,30.24,SSE,157,0.0,0.0,98,0.00,,,0.00,Wunderground v.1.15,2013-05-29 10:31:00,
2013-05-29 06:36:00,60.2,59.6,30.24,SSE,157,0.0,0.0,98,0.00,,,0.00,Wunderground v.1.15,2013-05-29 10:36:00,
2013-05-29 06:42:00,60.3,59.7,30.24,SSE,157,0.0,0.0,98,0.00,,,0.00,Wunderground v.1.15,2013-05-29 10:42:00,
2013-05-29 06:47:00,60.4,59.8,30.24,SSE,157,0.0,0.0,98,0.00,,,0.00,Wunderground v.1.15,2013-05-29 10:47:00,
2013-05-29 06:52:00,60.6,60.0,30.24,SSE,157,0.0,0.0,98,0.00,,,0.00,Wunderground v.1.15,2013-05-29 10:52:00,
2013-05-29 06:57:00,61.0,60.4,30.24,SSE,157,0.0,1.0,98,0.00,,,0.00,Wunderground v.1.15,2013-05-29 10:57:00,
2013-05-29 07:02:00,61.6,61.3,30.24,SSE,157,0.0,0.0,99,0.00,,,0.00,Wunderground v.1.15,2013-05-29 11:02:00,
2013-05-29 07:07:00,62.2,61.9,30.24,SSE,157,0.0,0.0,99,0.00,,,0.00,Wunderground v.1.15,2013-05-29 11:07:00,
2013-05-29 07:12:00,62.9,62.6,30.25,SSE,163,0.0,1.0,99,0.00,,,0.00,Wunderground v.1.15,2013-05-29 11:12:00,
2013-05-29 07:17:00,63.3,63.0,30.25,SSE,163,0.0,1.0,99,0.00,,,0.00,Wunderground v.1.15,2013-05-29 11:17:00,
2013-05-29 07:22:00,63.4,63.1,30.25,SSE,163,0.0,0.0,99,0.00,,,0.00,Wunderground v.1.15,2013-05-29 11:22:00,
2013-05-29 07:27:00,63.6,63.3,30.25,SSE,163,0.0,0.0,99,0.00,,,0.00,Wunderground v.1.15,2013-05-29 11:27:00,
2013-05-29 07:32:00,64.2,63.9,30.25,SSW,208,1.0,3.0,99,0.00,,,0.00,Wunderground v.1.15,2013-05-29 11:32:00,
2013-05-29 07:37:00,64.9,64.6,30.25,SSW,212,2.0,3.0,99,0.00,,,0.00,Wunderground v.1.15,2013-05-29 11:37:00,
2013-05-29 07:42:00,65.5,64.6,30.25,SSW,210,4.0,4.0,97,0.00,,,0.00,Wunderground v.1.15,2013-05-29 11:42:00,
2013-05-29 07:47:00,66.1,64.6,30.25,SSW,198,1.0,4.0,95,0.00,,,0.00,Wunderground v.1.15,2013-05-29 11:47:00,
2013-05-29 07:52:00,66.8,65.0,30.25,SW,214,1.0,2.0,94,0.00,,,0.00,Wunderground v.1.15,2013-05-29 11:52:00,
2013-05-29 07:57:00,67.3,65.2,30.25,SSW,206,0.0,3.0,93,0.00,,,0.00,Wunderground v.1.15,2013-05-29 11:57:00,
2013-05-29 08:02:00,67.8,65.4,30.26,WSW,251,2.0,3.0,92,0.00,,,0.00,Wunderground v.1.15,2013-05-29 12:02:00,
2013-05-29 08:07:00,68.2,65.2,30.26,SW,234,2.0,4.0,90,0.00,,,0.00,Wunderground v.1.15,2013-05-29 12:07:00,
2013-05-29 08:12:00,68.5,65.4,30.26,SW,219,3.0,5.0,90,0.00,,,0.00,Wunderground v.1.15,2013-05-29 12:12:00,
2013-05-29 08:17:00,68.8,65.4,30.26,South,189,2.0,6.0,89,0.00,,,0.00,Wunderground v.1.15,2013-05-29 12:17:00,
2013-05-29 08:22:00,69.3,65.9,30.26,SSW,197,6.0,6.0,89,0.00,,,0.00,Wunderground v.1.15,2013-05-29 12:22:00,
2013-05-29 08:27:00,69.8,65.8,30.26,WSW,247,1.0,6.0,87,0.00,,,0.00,Wunderground v.1.15,2013-05-29 12:27:00,
2013-05-29 08:32:00,70.5,66.4,30.26,South,171,2.0,3.0,87,0.00,,,0.00,Wunderground v.1.15,2013-05-29 12:32:00,
2013-05-29 08:37:00,71.0,66.3,30.26,South,190,4.0,6.0,85,0.00,,,0.00,Wunderground v.1.15,2013-05-29 12:37:00,
2013-05-29 08:42:00,71.5,66.1,30.26,SSW,200,4.0,6.0,83,0.00,,,0.00,Wunderground v.1.15,2013-05-29 12:42:00,
2013-05-29 08:47:00,72.0,66.6,30.26,WSW,246,3.0,6.0,83,0.00,,,0.00,Wunderground v.1.15,2013-05-29 12:47:00,
2013-05-29 08:52:00,72.8,66.6,30.26,ESE,116,3.0,6.0,81,0.00,,,0.00,Wunderground v.1.15,2013-05-29 12:52:00,
2013-05-29 08:57:00,73.1,66.2,30.26,SW,230,5.0,7.0,79,0.00,,,0.00,Wunderground v.1.15,2013-05-29 12:57:00,
2013-05-29 09:02:00,72.9,66.0,30.26,SW,229,6.0,9.0,79,0.00,,,0.00,Wunderground v.1.15,2013-05-29 13:02:00,
2013-05-29 09:07:00,72.8,65.9,30.26,SSW,198,4.0,10.0,79,0.00,,,0.00,Wunderground v.1.15,2013-05-29 13:07:00,
2013-05-29 09:12:00,73.1,65.8,30.26,SSW,194,6.0,9.0,78,0.00,,,0.00,Wunderground v.1.15,2013-05-29 13:12:00,
2013-05-29 09:17:00,73.5,66.2,30.26,SSW,194,6.0,9.0,78,0.00,,,0.00,Wunderground v.1.15,2013-05-29 13:17:00,
2013-05-29 09:22:00,73.9,66.2,30.26,SSW,205,7.0,8.0,77,0.00,,,0.00,Wunderground v.1.15,2013-05-29 13:22:00,
2013-05-29 09:27:00,74.2,66.1,30.26,SSW,201,7.0,9.0,76,0.00,,,0.00,Wunderground v.1.15,2013-05-29 13:27:00,
2013-05-29 09:32:00,74.7,67.0,30.26,SW,233,1.0,6.0,77,0.00,,,0.00,Wunderground v.1.15,2013-05-29 13:32:00,
2013-05-29 09:37:00,75.0,66.1,30.26,SW,233,5.0,8.0,74,0.00,,,0.00,Wunderground v.1.15,2013-05-29 13:37:00,
2013-05-29 09:42:00,75.3,66.0,30.26,South,190,4.0,6.0,73,0.00,,,0.00,Wunderground v.1.15,2013-05-29 13:42:00,
2013-05-29 09:48:00,75.6,65.9,30.26,West,269,3.0,7.0,72,0.00,,,0.00,Wunderground v.1.15,2013-05-29 13:48:00,
2013-05-29 09:53:00,75.8,66.1,30.26,West,281,4.0,6.0,72,0.00,,,0.00,Wunderground v.1.15,2013-05-29 13:53:00,
2013-05-29 09:58:00,76.0,65.1,30.26,West,259,2.0,8.0,69,0.00,,,0.00,Wunderground v.1.15,2013-05-29 13:58:00,
2013-05-29 10:03:00,75.8,65.7,30.26,WSW,251,3.0,7.0,71,0.00,,,0.00,Wunderground v.1.15,2013-05-29 14:03:00,
2013-05-29 10:08:00,76.1,65.2,30.26,SSW,196,4.0,8.0,69,0.00,,,0.00,Wunderground v.1.15,2013-05-29 14:08:00,
2013-05-29 10:13:00,75.6,65.5,30.26,SW,229,1.0,7.0,71,0.00,,,0.00,Wunderground v.1.15,2013-05-29 14:13:00,
2013-05-29 10:18:00,75.5,65.0,30.26,South,188,4.0,8.0,70,0.00,,,0.00,Wunderground v.1.15,2013-05-29 14:18:00,
2013-05-29 10:23:00,75.5,65.4,30.27,SW,233,4.0,8.0,71,0.00,,,0.00,Wunderground v.1.15,2013-05-29 14:23:00,
2013-05-29 10:28:00,75.8,65.3,30.27,SSW,192,6.0,10.0,70,0.00,,,0.00,Wunderground v.1.15,2013-05-29 14:28:00,
2013-05-29 10:33:00,76.7,65.3,30.27,South,191,4.0,5.0,68,0.00,,,0.00,Wunderground v.1.15,2013-05-29 14:33:00,
2013-05-29 10:38:00,77.9,65.2,30.26,WSW,255,3.0,10.0,65,0.00,,,0.00,Wunderground v.1.15,2013-05-29 14:38:00,
2013-05-29 10:43:00,77.5,65.2,30.27,South,173,6.0,10.0,66,0.00,,,0.00,Wunderground v.1.15,2013-05-29 14:43:00,
2013-05-29 10:48:00,77.2,64.1,30.27,West,269,4.0,10.0,64,0.00,,,0.00,Wunderground v.1.15,2013-05-29 14:48:00,
2013-05-29 10:53:00,77.5,64.8,30.27,SSW,210,6.0,10.0,65,0.00,,,0.00,Wunderground v.1.15,2013-05-29 14:53:00,
2013-05-29 10:59:00,77.9,64.3,30.27,SSW,210,9.0,10.0,63,0.00,,,0.00,Wunderground v.1.15,2013-05-29 14:59:00,
2013-05-29 11:04:00,78.2,64.1,30.26,SE,130,4.0,9.0,62,0.00,,,0.00,Wunderground v.1.15,2013-05-29 15:04:00,
2013-05-29 11:09:00,78.5,64.9,30.26,South,176,2.0,9.0,63,0.00,,,0.00,Wunderground v.1.15,2013-05-29 15:09:00,
2013-05-29 11:14:00,79.6,64.5,30.26,SSE,149,4.0,9.0,60,0.00,,,0.00,Wunderground v.1.15,2013-05-29 15:14:00,
2013-05-29 11:19:00,79.4,63.8,30.26,SSE,161,9.0,10.0,59,0.00,,,0.00,Wunderground v.1.15,2013-05-29 15:19:00,
2013-05-29 11:24:00,78.9,64.3,30.27,West,269,4.0,10.0,61,0.00,,,0.00,Wunderground v.1.15,2013-05-29 15:24:00,
2013-05-29 11:29:00,78.6,64.5,30.27,WSW,248,1.0,10.0,62,0.00,,,0.00,Wunderground v.1.15,2013-05-29 15:29:00,
2013-05-29 11:34:00,77.8,63.3,30.27,SSW,213,5.0,6.0,61,0.00,,,0.00,Wunderground v.1.15,2013-05-29 15:34:00,
2013-05-29 11:39:00,78.4,64.3,30.27,SSW,208,1.0,6.0,62,0.00,,,0.00,Wunderground v.1.15,2013-05-29 15:39:00,
2013-05-29 11:44:00,79.1,64.5,30.27,SW,221,1.0,7.0,61,0.00,,,0.00,Wunderground v.1.15,2013-05-29 15:44:00,
2013-05-29 11:49:00,80.0,64.9,30.27,SW,224,5.0,7.0,60,0.00,,,0.00,Wunderground v.1.15,2013-05-29 15:49:00,
2013-05-29 11:54:00,80.0,63.9,30.27,SSW,196,7.0,8.0,58,0.00,,,0.00,Wunderground v.1.15,2013-05-29 15:54:00,
2013-05-29 11:59:00,80.9,64.7,30.27,SSE,159,6.0,9.0,58,0.00,,,0.00,Wunderground v.1.15,2013-05-29 15:59:00,
2013-05-29 12:04:00,81.1,64.9,30.26,SSE,148,7.0,9.0,58,0.00,,,0.00,Wunderground v.1.15,2013-05-29 16:04:00,
2013-05-29 12:09:00,80.9,62.2,30.26,South,188,6.0,9.0,53,0.00,,,0.00,Wunderground v.1.15,2013-05-29 16:09:00,
2013-05-29 12:14:00,81.0,63.8,30.26,SSE,153,6.0,12.0,56,0.00,,,0.00,Wunderground v.1.15,2013-05-29 16:14:00,
2013-05-29 12:19:00,81.7,64.5,30.26,SSW,213,4.0,12.0,56,0.00,,,0.00,Wunderground v.1.15,2013-05-29 16:19:00,
2013-05-29 12:24:00,83.0,65.2,30.26,SSW,207,6.0,8.0,55,0.00,,,0.00,Wunderground v.1.15,2013-05-29 16:24:00,
2013-05-29 12:29:00,82.2,63.9,30.26,SSE,156,2.0,12.0,54,0.00,,,0.00,Wunderground v.1.15,2013-05-29 16:29:00,
2013-05-29 12:35:00,83.2,64.8,30.26,SSW,203,7.0,12.0,54,0.00,,,0.00,Wunderground v.1.15,2013-05-29 16:35:00,
2013-05-29 12:40:00,83.3,64.9,30.26,SSW,192,7.0,12.0,54,0.00,,,0.00,Wunderground v.1.15,2013-05-29 16:40:00,
2013-05-29 12:45:00,82.7,63.3,30.26,South,181,6.0,12.0,52,0.00,,,0.00,Wunderground v.1.15,2013-05-29 16:45:00,
2013-05-29 12:50:00,81.6,63.9,30.26,SSE,161,4.0,12.0,55,0.00,,,0.00,Wunderground v.1.15,2013-05-29 16:50:00,
2013-05-29 12:55:00,82.4,63.5,30.25,SSE,168,6.0,10.0,53,0.00,,,0.00,Wunderground v.1.15,2013-05-29 16:55:00,
2013-05-29 13:00:00,82.6,64.3,30.25,SE,144,2.0,10.0,54,0.00,,,0.00,Wunderground v.1.15,2013-05-29 17:00:00,
2013-05-29 13:05:00,83.8,64.3,30.25,South,175,5.0,11.0,52,0.00,,,0.00,Wunderground v.1.15,2013-05-29 17:05:00,
2013-05-29 13:10:00,84.2,64.1,30.25,SSW,196,0.0,11.0,51,0.00,,,0.00,Wunderground v.1.15,2013-05-29 17:10:00,
2013-05-29 13:15:00,84.3,64.8,30.25,South,177,4.0,11.0,52,0.00,,,0.00,Wunderground v.1.15,2013-05-29 17:15:00,
2013-05-29 13:20:00,83.2,63.2,30.24,SSW,207,4.0,11.0,51,0.00,,,0.00,Wunderground v.1.15,2013-05-29 17:20:00,
2013-05-29 13:25:00,81.8,64.1,30.24,South,188,5.0,7.0,55,0.00,,,0.00,Wunderground v.1.15,2013-05-29 17:25:00,
2013-05-29 13:30:00,82.4,63.5,30.24,SW,224,3.0,8.0,53,0.00,,,0.00,Wunderground v.1.15,2013-05-29 17:30:00,
2013-05-29 13:35:00,81.9,63.6,30.23,South,180,7.0,10.0,54,0.00,,,0.00,Wunderground v.1.15,2013-05-29 17:35:00,
2013-05-29 13:40:00,82.3,65.0,30.23,SSW,207,1.0,5.0,56,0.00,,,0.00,Wunderground v.1.15,2013-05-29 17:40:00,
2013-05-29 13:45:00,85.0,65.4,30.23,SSW,205,2.0,7.0,52,0.00,,,0.00,Wunderground v.1.15,2013-05-29 17:45:00,
2013-05-29 13:50:00,84.0,63.4,30.23,SSE,163,5.0,5.0,50,0.00,,,0.00,Wunderground v.1.15,2013-05-29 17:50:00,
2013-05-29 13:55:00,83.4,63.9,30.23,South,179,2.0,6.0,52,0.00,,,0.00,Wunderground v.1.15,2013-05-29 17:55:00,
2013-05-29 14:00:00,84.3,64.2,30.23,SE,146,7.0,7.0,51,0.00,,,0.00,Wunderground v.1.15,2013-05-29 18:00:00,
2013-05-29 14:05:00,84.0,65.0,30.23,South,172,6.0,10.0,53,0.00,,,0.00,Wunderground v.1.15,2013-05-29 18:05:00,
2013-05-29 14:10:00,84.1,64.6,30.23,ESE,121,1.0,5.0,52,0.00,,,0.00,Wunderground v.1.15,2013-05-29 18:10:00,
2013-05-29 14:15:00,83.9,63.8,30.22,South,187,7.0,13.0,51,0.00,,,0.00,Wunderground v.1.15,2013-05-29 18:15:00,
2013-05-29 14:21:00,83.6,63.6,30.22,ESE,111,6.0,8.0,51,0.00,,,0.00,Wunderground v.1.15,2013-05-29 18:21:00,
2013-05-29 14:26:00,83.8,64.3,30.22,SSE,149,9.0,9.0,52,0.00,,,0.00,Wunderground v.1.15,2013-05-29 18:26:00,
2013-05-29 14:31:00,83.9,63.8,30.22,SE,124,6.0,10.0,51,0.00,,,0.00,Wunderground v.1.15,2013-05-29 18:31:00,
2013-05-29 14:36:00,83.8,64.8,30.22,SE,140,4.0,11.0,53,0.00,,,0.00,Wunderground v.1.15,2013-05-29 18:36:00,
2013-05-29 14:41:00,84.5,63.8,30.22,ESE,118,6.0,6.0,50,0.00,,,0.00,Wunderground v.1.15,2013-05-29 18:41:00,
2013-05-29 14:46:00,83.7,63.1,30.22,SE,142,7.0,9.0,50,0.00,,,0.00,Wunderground v.1.15,2013-05-29 18:46:00,
2013-05-29 14:51:00,83.6,64.1,30.22,SE,135,7.0,9.0,52,0.00,,,0.00,Wunderground v.1.15,2013-05-29 18:51:00,
2013-05-29 14:56:00,82.8,63.4,30.22,South,169,4.0,9.0,52,0.00,,,0.00,Wunderground v.1.15,2013-05-29 18:56:00,
2013-05-29 15:01:00,83.4,63.9,30.22,SSW,194,3.0,10.0,52,0.00,,,0.00,Wunderground v.1.15,2013-05-29 19:01:00,
2013-05-29 15:06:00,85.1,63.8,30.22,SSW,193,9.0,12.0,49,0.00,,,0.00,Wunderground v.1.15,2013-05-29 19:06:00,
2013-05-29 15:11:00,85.1,63.2,30.21,SSE,163,8.0,12.0,48,0.00,,,0.00,Wunderground v.1.15,2013-05-29 19:11:00,
2013-05-29 15:16:00,85.2,63.9,30.21,SE,127,5.0,13.0,49,0.00,,,0.00,Wunderground v.1.15,2013-05-29 19:16:00,
2013-05-29 15:21:00,86.0,63.4,30.21,SSE,167,4.0,8.0,47,0.00,,,0.00,Wunderground v.1.15,2013-05-29 19:21:00,
2013-05-29 15:26:00,86.5,63.9,30.21,SW,227,1.0,10.0,47,0.00,,,0.00,Wunderground v.1.15,2013-05-29 19:26:00,
2013-05-29 15:31:00,86.9,64.2,30.21,SW,219,2.0,8.0,47,0.00,,,0.00,Wunderground v.1.15,2013-05-29 19:31:00,
2013-05-29 15:36:00,86.2,64.2,30.21,ESE,110,6.0,8.0,48,0.00,,,0.00,Wunderground v.1.15,2013-05-29 19:36:00,
2013-05-29 15:42:00,85.1,63.2,30.21,South,171,6.0,7.0,48,0.00,,,0.00,Wunderground v.1.15,2013-05-29 19:42:00,
2013-05-29 15:47:00,84.7,62.8,30.21,South,170,4.0,9.0,48,0.00,,,0.00,Wunderground v.1.15,2013-05-29 19:47:00,
2013-05-29 15:52:00,85.1,63.2,30.21,SSE,167,5.0,8.0,48,0.00,,,0.00,Wunderground v.1.15,2013-05-29 19:52:00,
2013-05-29 15:57:00,86.0,63.4,30.20,SSE,162,6.0,8.0,47,0.00,,,0.00,Wunderground v.1.15,2013-05-29 19:57:00,
2013-05-29 16:02:00,85.9,63.3,30.20,SE,140,3.0,10.0,47,0.00,,,0.00,Wunderground v.1.15,2013-05-29 20:02:00,
2013-05-29 16:07:00,85.7,63.8,30.20,ESE,111,5.0,10.0,48,0.00,,,0.00,Wunderground v.1.15,2013-05-29 20:07:00,
2013-05-29 16:12:00,85.3,64.0,30.20,SE,145,6.0,7.0,49,0.00,,,0.00,Wunderground v.1.15,2013-05-29 20:12:00,
2013-05-29 16:17:00,85.0,63.1,30.20,South,190,9.0,11.0,48,0.00,,,0.00,Wunderground v.1.15,2013-05-29 20:17:00,
2013-05-29 16:22:00,84.3,63.1,30.20,SSW,196,4.0,8.0,49,0.00,,,0.00,Wunderground v.1.15,2013-05-29 20:22:00,
2013-05-29 16:27:00,84.7,63.4,30.20,South,169,7.0,15.0,49,0.00,,,0.00,Wunderground v.1.15,2013-05-29 20:27:00,
2013-05-29 16:32:00,85.0,63.1,30.20,South,185,1.0,7.0,48,0.00,,,0.00,Wunderground v.1.15,2013-05-29 20:32:00,
2013-05-29 16:37:00,84.7,63.4,30.20,SSE,160,4.0,8.0,49,0.00,,,0.00,Wunderground v.1.15,2013-05-29 20:37:00,
2013-05-29 16:42:00,84.7,63.4,30.19,SSE,156,6.0,10.0,49,0.00,,,0.00,Wunderground v.1.15,2013-05-29 20:42:00,
2013-05-29 16:47:00,85.0,63.7,30.19,SSE,152,4.0,10.0,49,0.00,,,0.00,Wunderground v.1.15,2013-05-29 20:47:00,
2013-05-29 16:52:00,85.4,63.5,30.19,SSE,168,10.0,13.0,48,0.00,,,0.00,Wunderground v.1.15,2013-05-29 20:52:00,
2013-05-29 16:57:00,85.2,63.3,30.19,SW,225,4.0,13.0,48,0.00,,,0.00,Wunderground v.1.15,2013-05-29 20:57:00,
2013-05-29 17:02:00,85.3,63.4,30.20,SSW,206,4.0,7.0,48,0.00,,,0.00,Wunderground v.1.15,2013-05-29 21:02:00,
2013-05-29 17:08:00,84.5,63.8,30.20,SSW,196,3.0,8.0,50,0.00,,,0.00,Wunderground v.1.15,2013-05-29 21:08:00,
2013-05-29 17:13:00,83.8,63.2,30.19,SSW,213,2.0,7.0,50,0.00,,,0.00,Wunderground v.1.15,2013-05-29 21:13:00,
2013-05-29 17:18:00,84.3,63.6,30.19,WSW,246,2.0,7.0,50,0.00,,,0.00,Wunderground v.1.15,2013-05-29 21:18:00,
2013-05-29 17:23:00,85.3,64.0,30.19,SSW,206,3.0,9.0,49,0.00,,,0.00,Wunderground v.1.15,2013-05-29 21:23:00,
2013-05-29 17:28:00,85.4,63.5,30.19,SSW,194,8.0,9.0,48,0.00,,,0.00,Wunderground v.1.15,2013-05-29 21:28:00,
2013-05-29 17:33:00,85.3,62.8,30.19,SW,235,2.0,7.0,47,0.00,,,0.00,Wunderground v.1.15,2013-05-29 21:33:00,
2013-05-29 17:38:00,84.9,63.6,30.19,SSW,202,4.0,11.0,49,0.00,,,0.00,Wunderground v.1.15,2013-05-29 21:38:00,
2013-05-29 17:43:00,84.1,62.9,30.19,South,190,4.0,9.0,49,0.00,,,0.00,Wunderground v.1.15,2013-05-29 21:43:00,
2013-05-29 17:48:00,83.9,63.3,30.19,SSE,148,5.0,9.0,50,0.00,,,0.00,Wunderground v.1.15,2013-05-29 21:48:00,
2013-05-29 17:53:00,83.8,63.7,30.19,SSE,166,4.0,7.0,51,0.00,,,0.00,Wunderground v.1.15,2013-05-29 21:53:00,
2013-05-29 17:58:00,83.6,64.1,30.19,South,190,4.0,11.0,52,0.00,,,0.00,Wunderground v.1.15,2013-05-29 21:58:00,
2013-05-29 18:03:00,82.8,63.9,30.19,SE,145,6.0,8.0,53,0.00,,,0.00,Wunderground v.1.15,2013-05-29 22:03:00,
2013-05-29 18:08:00,82.8,63.4,30.18,South,191,7.0,8.0,52,0.00,,,0.00,Wunderground v.1.15,2013-05-29 22:08:00,
2013-05-29 18:13:00,83.0,63.0,30.18,South,171,7.0,11.0,51,0.00,,,0.00,Wunderground v.1.15,2013-05-29 22:13:00,
2013-05-29 18:18:00,83.2,63.2,30.19,South,186,7.0,12.0,51,0.00,,,0.00,Wunderground v.1.15,2013-05-29 22:18:00,
2013-05-29 18:23:00,83.3,63.8,30.19,SW,225,3.0,7.0,52,0.00,,,0.00,Wunderground v.1.15,2013-05-29 22:23:00,
2013-05-29 18:28:00,83.5,64.0,30.19,SSW,204,2.0,7.0,52,0.00,,,0.00,Wunderground v.1.15,2013-05-29 22:28:00,
2013-05-29 18:33:00,83.5,62.9,30.18,SSW,202,3.0,6.0,50,0.00,,,0.00,Wunderground v.1.15,2013-05-29 22:33:00,
2013-05-29 18:38:00,83.4,63.4,30.18,SE,143,6.0,8.0,51,0.00,,,0.00,Wunderground v.1.15,2013-05-29 22:38:00,
2013-05-29 18:43:00,83.1,63.1,30.18,SSE,153,2.0,8.0,51,0.00,,,0.00,Wunderground v.1.15,2013-05-29 22:43:00,
2013-05-29 18:48:00,82.9,63.5,30.19,SSE,157,3.0,8.0,52,0.00,,,0.00,Wunderground v.1.15,2013-05-29 22:48:00,
2013-05-29 18:53:00,82.7,63.3,30.18,South,177,2.0,4.0,52,0.00,,,0.00,Wunderground v.1.15,2013-05-29 22:53:00,
2013-05-29 18:58:00,82.5,63.6,30.18,SSW,198,1.0,4.0,53,0.00,,,0.00,Wunderground v.1.15,2013-05-29 22:58:00,
2013-05-29 19:03:00,82.5,63.6,30.18,SSE,151,5.0,7.0,53,0.00,,,0.00,Wunderground v.1.15,2013-05-29 23:03:00,
2013-05-29 19:08:00,82.6,63.7,30.18,SSE,166,3.0,7.0,53,0.00,,,0.00,Wunderground v.1.15,2013-05-29 23:08:00,
2013-05-29 19:13:00,82.4,63.5,30.18,SSE,160,5.0,7.0,53,0.00,,,0.00,Wunderground v.1.15,2013-05-29 23:13:00,
2013-05-29 19:18:00,82.1,63.3,30.18,South,179,6.0,8.0,53,0.00,,,0.00,Wunderground v.1.15,2013-05-29 23:18:00,
2013-05-29 19:23:00,81.8,64.1,30.18,SE,146,3.0,7.0,55,0.00,,,0.00,Wunderground v.1.15,2013-05-29 23:23:00,
2013-05-29 19:28:00,81.5,63.8,30.18,SSE,148,3.0,9.0,55,0.00,,,0.00,Wunderground v.1.15,2013-05-29 23:28:00,
2013-05-29 19:33:00,81.4,64.2,30.18,SSW,213,1.0,7.0,56,0.00,,,0.00,Wunderground v.1.15,2013-05-29 23:33:00,
2013-05-29 19:38:00,81.3,64.1,30.18,SSE,150,5.0,7.0,56,0.00,,,0.00,Wunderground v.1.15,2013-05-29 23:38:00,
2013-05-29 19:43:00,81.0,63.8,30.18,SE,142,4.0,7.0,56,0.00,,,0.00,Wunderground v.1.15,2013-05-29 23:43:00,
2013-05-29 19:48:00,80.8,64.1,30.18,ESE,115,2.0,7.0,57,0.00,,,0.00,Wunderground v.1.15,2013-05-29 23:48:00,
2013-05-29 19:53:00,80.3,64.2,30.18,East,88,2.0,4.0,58,0.00,,,0.00,Wunderground v.1.15,2013-05-29 23:53:00,
2013-05-29 19:58:00,80.0,64.4,30.18,SSE,154,2.0,4.0,59,0.00,,,0.00,Wunderground v.1.15,2013-05-29 23:58:00,
2013-05-29 20:03:00,79.7,65.1,30.18,SE,142,1.0,3.0,61,0.00,,,0.00,Wunderground v.1.15,2013-05-30 00:03:00,
2013-05-29 20:08:00,79.1,65.4,30.18,ESE,123,2.0,3.0,63,0.00,,,0.00,Wunderground v.1.15,2013-05-30 00:08:00,
2013-05-29 20:13:00,77.6,65.3,30.18,SSE,152,3.0,5.0,66,0.00,,,0.00,Wunderground v.1.15,2013-05-30 00:13:00,
2013-05-29 20:18:00,77.6,65.8,30.18,SE,144,1.0,5.0,67,0.00,,,0.00,Wunderground v.1.15,2013-05-30 00:18:00,
2013-05-29 20:23:00,77.1,65.7,30.18,SSE,152,1.0,2.0,68,0.00,,,0.00,Wunderground v.1.15,2013-05-30 00:23:00,
2013-05-29 20:28:00,76.1,65.6,30.18,SSE,152,1.0,3.0,70,0.00,,,0.00,Wunderground v.1.15,2013-05-30 00:28:00,
2013-05-29 20:33:00,75.7,66.0,30.18,SSE,152,1.0,3.0,72,0.00,,,0.00,Wunderground v.1.15,2013-05-30 00:33:00,
2013-05-29 20:38:00,75.3,65.2,30.17,SSE,150,2.0,4.0,71,0.00,,,0.00,Wunderground v.1.15,2013-05-30 00:38:00,
2013-05-29 20:44:00,74.8,65.6,30.17,SSE,152,2.0,3.0,73,0.00,,,0.00,Wunderground v.1.15,2013-05-30 00:44:00,
2013-05-29 20:49:00,74.5,65.3,30.17,SSE,152,2.0,4.0,73,0.00,,,0.00,Wunderground v.1.15,2013-05-30 00:49:00,
2013-05-29 20:54:00,75.1,65.5,30.18,South,173,4.0,4.0,72,0.00,,,0.00,Wunderground v.1.15,2013-05-30 00:54:00,
2013-05-29 21:00:00,75.6,65.5,30.18,South,181,3.0,3.0,71,0.00,,,0.00,Wunderground v.1.15,2013-05-30 01:00:00,
2013-05-29 21:05:00,75.8,65.3,30.18,South,173,2.0,4.0,70,0.00,,,0.00,Wunderground v.1.15,2013-05-30 01:05:00,
2013-05-29 21:11:00,76.0,65.5,30.18,South,187,5.0,5.0,70,0.00,,,0.00,Wunderground v.1.15,2013-05-30 01:11:00,
2013-05-29 21:17:00,76.1,65.6,30.18,SSE,151,4.0,5.0,70,0.00,,,0.00,Wunderground v.1.15,2013-05-30 01:17:00,
2013-05-29 21:22:00,76.1,65.6,30.19,South,173,5.0,5.0,70,0.00,,,0.00,Wunderground v.1.15,2013-05-30 01:22:00,
2013-05-29 21:27:00,76.1,65.2,30.19,SSE,147,6.0,7.0,69,0.00,,,0.00,Wunderground v.1.15,2013-05-30 01:27:00,
2013-05-29 21:32:00,76.0,65.1,30.19,South,182,4.0,6.0,69,0.00,,,0.00,Wunderground v.1.15,2013-05-30 01:32:00,
2013-05-29 21:37:00,75.9,65.0,30.19,South,177,6.0,7.0,69,0.00,,,0.00,Wunderground v.1.15,2013-05-30 01:37:00,
2013-05-29 21:42:00,75.8,64.9,30.20,South,172,4.0,6.0,69,0.00,,,0.00,Wunderground v.1.15,2013-05-30 01:42:00,
2013-05-29 21:47:00,75.7,64.8,30.20,South,187,3.0,6.0,69,0.00,,,0.00,Wunderground v.1.15,2013-05-30 01:47:00,
2013-05-29 21:52:00,75.6,64.7,30.21,SE,141,5.0,6.0,69,0.00,,,0.00,Wunderground v.1.15,2013-05-30 01:52:00,
2013-05-29 21:57:00,75.5,64.6,30.21,SSE,156,5.0,6.0,69,0.00,,,0.00,Wunderground v.1.15,2013-05-30 01:57:00,
2013-05-29 22:03:00,75.3,64.4,30.21,South,179,3.0,4.0,69,0.00,,,0.00,Wunderground v.1.15,2013-05-30 02:03:00,
2013-05-29 22:09:00,75.2,64.3,30.22,South,177,4.0,5.0,69,0.00,,,0.00,Wunderground v.1.15,2013-05-30 02:09:00,
2013-05-29 22:15:00,75.0,64.5,30.22,South,180,2.0,6.0,70,0.00,,,0.00,Wunderground v.1.15,2013-05-30 02:15:00,
2013-05-29 22:20:00,74.9,64.5,30.22,SSE,165,5.0,5.0,70,0.00,,,0.00,Wunderground v.1.15,2013-05-30 02:20:00,
2013-05-29 22:25:00,74.6,64.2,30.22,SE,141,4.0,6.0,70,0.00,,,0.00,Wunderground v.1.15,2013-05-30 02:25:00,
2013-05-29 22:30:00,74.4,64.0,30.22,SE,141,6.0,7.0,70,0.00,,,0.00,Wunderground v.1.15,2013-05-30 02:30:00,
2013-05-29 22:35:00,74.3,63.9,30.22,SSE,163,7.0,13.0,70,0.00,,,0.00,Wunderground v.1.15,2013-05-30 02:35:00,
2013-05-29 22:40:00,74.2,64.2,30.23,SSE,149,5.0,6.0,71,0.00,,,0.00,Wunderground v.1.15,2013-05-30 02:40:00,
2013-05-29 22:45:00,73.9,63.9,30.23,South,188,5.0,10.0,71,0.00,,,0.00,Wunderground v.1.15,2013-05-30 02:45:00,
2013-05-29 22:50:00,73.7,63.7,30.23,ESE,117,3.0,5.0,71,0.00,,,0.00,Wunderground v.1.15,2013-05-30 02:50:00,
2013-05-29 22:55:00,73.5,63.9,30.23,SSW,193,6.0,10.0,72,0.00,,,0.00,Wunderground v.1.15,2013-05-30 02:55:00,
2013-05-29 23:00:00,73.3,63.7,30.23,SSW,199,3.0,5.0,72,0.00,,,0.00,Wunderground v.1.15,2013-05-30 03:00:00,
2013-05-29 23:05:00,73.2,64.0,30.23,South,177,9.0,9.0,73,0.00,,,0.00,Wunderground v.1.15,2013-05-30 03:05:00,
2013-05-29 23:10:00,73.1,63.9,30.23,SSE,162,6.0,9.0,73,0.00,,,0.00,Wunderground v.1.15,2013-05-30 03:10:00,
2013-05-29 23:15:00,72.8,64.0,30.23,SSE,147,8.0,9.0,74,0.00,,,0.00,Wunderground v.1.15,2013-05-30 03:15:00,
2013-05-29 23:20:00,72.6,63.8,30.24,South,173,4.0,9.0,74,0.00,,,0.00,Wunderground v.1.15,2013-05-30 03:20:00,
2013-05-29 23:25:00,72.4,64.0,30.24,South,174,3.0,9.0,75,0.00,,,0.00,Wunderground v.1.15,2013-05-30 03:25:00,
2013-05-29 23:31:00,72.3,63.9,30.24,SSW,192,6.0,8.0,75,0.00,,,0.00,Wunderground v.1.15,2013-05-30 03:31:00,
2013-05-29 23:36:00,72.2,63.8,30.24,SSE,155,4.0,9.0,75,0.00,,,0.00,Wunderground v.1.15,2013-05-30 03:36:00,
2013-05-29 23:41:00,72.1,63.7,30.24,SSE,160,3.0,5.0,75,0.00,,,0.00,Wunderground v.1.15,2013-05-30 03:41:00,
2013-05-29 23:46:00,72.1,64.1,30.24,SSE,161,8.0,9.0,76,0.00,,,0.00,Wunderground v.1.15,2013-05-30 03:46:00,
2013-05-29 23:51:00,71.8,63.8,30.24,South,171,1.0,9.0,76,0.00,,,0.00,Wunderground v.1.15,2013-05-30 03:51:00,
2013-05-29 23:56:00,71.6,63.6,30.24,SSW,197,6.0,9.0,76,0.00,,,0.00,Wunderground v.1.15,2013-05-30 03:56:00,